Location: McNierney
(34.1937°N, 106.9061°W)
Time: 23:28:03
(UTC+00:00)

OAO 2 Rocket - Pass Details

Date: 11 December 2025
Orbit: 668 x 734 km, 35.0° (Epoch: 19 January)

Event Time Altitude Azimuth Distance (km) Brightness Sun altitude
Exits shadow 12:05:52 47° 222° (SW) 945 3.7 -23.7°
Maximum altitude 12:07:09 65° 163° (SSE) 788 3.6 -23.4°
Drops below altitude 10° 12:12:15 10° 82° (E) 2,186 6.8 -22.4°
Sets 12:14:40 0° 79° (E) 3,096 7.8 -21.9°
